TimeEST,TemperatureF,Dew PointF,Humidity,Sea Level PressureIn,VisibilityMPH,Wind Direction,Wind SpeedMPH,Gust SpeedMPH,PrecipitationIn,Events,Conditions,WindDirDegrees,DateUTC
12:54 AM,30.9,21.9,69,29.83,10.0,Calm,Calm,-,0.00,,Overcast,0,2013-02-13 05:54:00
1:54 AM,30.0,21.9,72,29.83,10.0,SSW,5.8,-,N/A,,Overcast,210,2013-02-13 06:54:00
2:54 AM,30.0,21.9,72,29.83,10.0,SSW,6.9,-,N/A,,Overcast,200,2013-02-13 07:54:00
3:38 AM,30.2,21.2,69,29.80,10.0,Calm,Calm,-,N/A,,Overcast,0,2013-02-13 08:38:00
3:54 AM,30.0,21.9,72,29.84,10.0,Calm,Calm,-,N/A,,Overcast,0,2013-02-13 08:54:00
4:54 AM,28.9,23.0,78,29.84,7.0,South,3.5,-,0.00,Snow,Light Snow,180,2013-02-13 09:54:00
5:03 AM,28.4,23.0,80,29.81,9.0,SSE,4.6,-,0.00,,Overcast,160,2013-02-13 10:03:00
5:46 AM,30.2,23.0,75,29.80,10.0,South,4.6,-,0.00,,Overcast,190,2013-02-13 10:46:00
5:54 AM,28.9,23.0,78,29.83,10.0,South,4.6,-,0.00,,Overcast,190,2013-02-13 10:54:00
6:50 AM,28.4,24.8,86,29.81,10.0,Calm,Calm,-,N/A,,Overcast,0,2013-02-13 11:50:00
6:54 AM,28.9,24.1,82,29.84,10.0,Calm,Calm,-,N/A,,Overcast,0,2013-02-13 11:54:00
7:54 AM,28.9,24.1,82,29.84,10.0,Calm,Calm,-,N/A,,Overcast,0,2013-02-13 12:54:00
8:28 AM,30.2,24.8,80,29.81,10.0,Calm,Calm,-,N/A,,Overcast,0,2013-02-13 13:28:00
8:54 AM,30.0,25.0,82,29.84,10.0,Calm,Calm,-,N/A,,Overcast,0,2013-02-13 13:54:00
9:54 AM,30.9,25.0,79,29.85,8.0,Calm,Calm,-,0.00,Snow,Light Snow,0,2013-02-13 14:54:00
10:01 AM,30.2,24.8,80,29.82,9.0,South,6.9,-,0.00,,Overcast,190,2013-02-13 15:01:00
10:54 AM,32.0,25.0,75,29.84,10.0,Calm,Calm,-,0.00,,Overcast,0,2013-02-13 15:54:00
11:41 AM,33.8,24.8,70,29.79,10.0,NNE,4.6,-,N/A,,Overcast,20,2013-02-13 16:41:00
11:54 AM,33.1,24.1,70,29.82,10.0,Calm,Calm,-,N/A,,Overcast,0,2013-02-13 16:54:00
12:54 PM,34.0,23.0,64,29.80,10.0,Calm,Calm,-,N/A,,Overcast,0,2013-02-13 17:54:00
1:25 PM,33.8,23.0,65,29.77,2.5,Calm,Calm,-,0.00,Snow,Light Snow,0,2013-02-13 18:25:00
1:32 PM,33.8,23.0,65,29.77,3.0,Calm,Calm,-,0.00,Snow,Light Snow,0,2013-02-13 18:32:00
1:54 PM,32.0,24.1,73,29.79,10.0,East,3.5,-,0.00,,Overcast,100,2013-02-13 18:54:00
2:54 PM,34.0,21.0,59,29.78,10.0,Calm,Calm,-,N/A,,Overcast,0,2013-02-13 19:54:00
3:54 PM,34.0,21.0,59,29.77,10.0,Calm,Calm,-,N/A,,Overcast,0,2013-02-13 20:54:00
4:54 PM,33.1,21.9,64,29.77,10.0,Calm,Calm,-,N/A,,Overcast,0,2013-02-13 21:54:00
5:54 PM,30.9,21.9,69,29.78,10.0,Calm,Calm,-,N/A,,Overcast,0,2013-02-13 22:54:00
6:54 PM,28.9,21.9,75,29.78,10.0,Calm,Calm,-,N/A,,Overcast,0,2013-02-13 23:54:00
7:54 PM,28.9,23.0,78,29.78,10.0,Calm,Calm,-,N/A,,Overcast,0,2013-02-14 00:54:00
8:54 PM,28.9,23.0,78,29.78,10.0,Calm,Calm,-,N/A,,Overcast,0,2013-02-14 01:54:00
9:54 PM,28.0,23.0,81,29.79,10.0,Calm,Calm,-,N/A,,Overcast,0,2013-02-14 02:54:00
10:54 PM,28.0,23.0,81,29.78,9.0,Calm,Calm,-,N/A,,Overcast,0,2013-02-14 03:54:00
11:54 PM,28.0,24.1,85,29.78,10.0,Calm,Calm,-,N/A,,Overcast,0,2013-02-14 04:54:00